K5VP Weather Reports


time (UTC)temp
C
wind
direction
speed
KPH
gust
KPH
rain 1hr
cm
rain 24hr
cm
rain mn
cm
humidity
%
barometer
mb
20260504180114 27 37 0.0 4.8 0.00 0.00 0.00 40 1012.3
20260504175556 27 117 0.0 8.0 0.00 0.00 0.00 42 1012.3
20260504175038 26 163 0.0 8.0 0.00 0.00 0.00 43 1012.5
20260504174540 26 212 0.0 12.9 0.00 0.00 0.00 43 1012.5
20260504174037 26 117 0.0 12.9 0.00 0.00 0.00 45 1012.4
20260504173538 26 188 1.6 12.9 0.00 0.00 0.00 44 1012.6
20260504173031 26 60 0.0 12.9 0.00 0.00 0.00 44 1012.7
20260504172513 26 236 0.0 4.8 0.00 0.00 0.00 45 1012.7
20260504172009 26 117 0.0 4.8 0.00 0.00 0.00 43 1012.8
20260504171512 26 101 0.0 8.0 0.00 0.00 0.00 43 1012.9
20260504171002 26 141 0.0 8.0 0.00 0.00 0.00 46 1013.0
20260504170447 26 107 0.0 11.3 0.00 0.00 0.00 46 1013.0
20260504160316 24 188 0.0 6.4 0.00 0.00 0.00 51 1013.9
20260504150643 22 209 0.0 6.4 0.00 0.00 0.00 55 1014.1
20260504150134 22 34 0.0 6.4 0.00 0.00 0.00 55 1014.2
20260504141029 19 123 0.0 0.0 0.00 0.00 0.00 67 1014.5
20260504140510 18 125 0.0 0.0 0.00 0.00 0.00 69 1014.6
20260504130743 16 189 0.0 0.0 0.00 0.00 0.00 75 1014.6
20260504130228 15 186 0.0 0.0 0.00 0.00 0.00 76 1014.5
20260504120132 11 185 0.0 0.0 0.00 0.00 0.00 86 1014.3
20260504110540 11 186 0.0 0.0 0.00 0.00 0.00 83 1014.0
20260504100456 11 186 0.0 0.0 0.00 0.00 0.00 83 1014.0
20260504081802 11 187 0.0 0.0 0.00 0.00 0.00 77 1014.1
20260504081250 11 187 0.0 0.0 0.00 0.00 0.00 77 1014.1
20260504080741 11 187 0.0 0.0 0.00 0.00 0.00 76 1014.2
20260504080231 11 187 0.0 0.0 0.00 0.00 0.00 76 1014.2
20260504070126 11 187 0.0 0.0 0.00 0.00 0.00 79 1014.8
20260504050238 11 187 0.0 0.0 0.00 0.00 0.00 75 1015.6
20260504045728 11 187 0.0 0.0 0.00 0.00 0.00 76 1015.7
20260504045236 11 187 0.0 0.0 0.00 0.00 0.00 77 1015.8
20260504044742 11 187 0.0 0.0 0.00 0.00 0.00 79 1015.8
20260504044245 11 187 0.0 0.0 0.00 0.00 0.00 79 1015.9
20260504043724 11 187 0.0 0.0 0.00 0.00 0.00 79 1015.9
20260504043208 11 187 0.0 0.0 0.00 0.00 0.00 80 1015.9
20260504042704 10 187 0.0 0.0 0.00 0.00 0.00 79 1015.9
20260504042153 10 187 0.0 0.0 0.00 0.00 0.00 78 1015.9
20260504041636 10 187 0.0 0.0 0.00 0.00 0.00 78 1016.0
20260504041138 10 187 0.0 0.0 0.00 0.00 0.00 79 1016.0
20260504040636 10 187 0.0 0.0 0.00 0.00 0.00 78 1016.0
20260504040142 10 187 0.0 0.0 0.00 0.00 0.00 78 1016.1
20260504035648 10 187 0.0 0.0 0.00 0.00 0.00 78 1016.1
20260504035151 10 187 0.0 0.0 0.00 0.00 0.00 78 1016.1
20260504034634 10 187 0.0 0.0 0.00 0.00 0.00 77 1016.1
20260504034117 11 187 0.0 0.0 0.00 0.00 0.00 77 1016.1
20260504033616 11 187 0.0 0.0 0.00 0.00 0.00 76 1016.2
20260504033057 11 187 0.0 0.0 0.00 0.00 0.00 76 1016.2
20260504032537 11 187 0.0 0.0 0.00 0.00 0.00 76 1016.3
20260504032035 11 187 0.0 0.0 0.00 0.00 0.00 76 1016.2
20260504031526 11 187 0.0 0.0 0.00 0.00 0.00 74 1016.3
20260504031026 11 187 0.0 0.0 0.00 0.00 0.00 74 1016.4
20260504030519 11 187 0.0 0.0 0.00 0.00 0.00 73 1016.4
20260504030013 11 187 0.0 0.0 0.00 0.00 0.00 72 1016.5
20260504025456 11 187 0.0 0.0 0.00 0.00 0.00 71 1016.4
20260504024951 11 187 0.0 0.0 0.00 0.00 0.00 71 1016.3
20260504024438 11 187 0.0 0.0 0.00 0.00 0.00 70 1016.4
20260504023930 11 187 0.0 0.0 0.00 0.00 0.00 70 1016.4
20260504023428 12 187 0.0 0.0 0.00 0.00 0.00 69 1016.4
20260504022915 12 187 0.0 0.0 0.00 0.00 0.00 69 1016.4
20260504022415 12 187 0.0 0.0 0.00 0.00 0.00 68 1016.4
20260504021855 12 187 0.0 0.0 0.00 0.00 0.00 69 1016.3
20260504021348 12 187 0.0 0.0 0.00 0.00 0.00 68 1016.3
20260504020845 12 187 0.0 0.0 0.00 0.00 0.00 67 1016.3
20260504020330 12 187 0.0 0.0 0.00 0.00 0.00 66 1016.3
20260504015813 12 187 0.0 0.0 0.00 0.00 0.00 66 1016.3
20260504015304 13 187 0.0 0.0 0.00 0.00 0.00 64 1016.2
20260504014802 13 187 0.0 0.0 0.00 0.00 0.00 63 1016.2
20260504014303 13 187 0.0 0.0 0.00 0.00 0.00 62 1016.0
20260504013758 13 187 0.0 0.0 0.00 0.00 0.00 63 1016.0
20260504013303 13 187 0.0 0.0 0.00 0.00 0.00 62 1015.9
20260504012751 14 187 0.0 0.0 0.00 0.00 0.00 61 1016.0
20260504012246 14 187 0.0 0.0 0.00 0.00 0.00 61 1015.9
20260504011724 15 187 0.0 0.0 0.00 0.00 0.00 60 1015.8
20260504011227 15 187 0.0 0.0 0.00 0.00 0.00 59 1015.8
20260504010716 15 187 0.0 0.0 0.00 0.00 0.00 60 1015.7
20260504010212 15 187 0.0 0.0 0.00 0.00 0.00 59 1015.7
20260504005708 16 187 0.0 0.0 0.00 0.00 0.00 58 1015.7
20260504005148 16 187 0.0 0.0 0.00 0.00 0.00 55 1015.8
20260504004642 16 187 0.0 0.0 0.00 0.00 0.00 56 1015.8
20260504004132 17 187 0.0 0.0 0.00 0.00 0.00 54 1015.9
20260504003621 17 187 0.0 0.0 0.00 0.00 0.00 53 1015.9
20260504003122 17 188 0.0 0.0 0.00 0.00 0.00 48 1015.9
20260504002628 17 188 0.0 0.0 0.00 0.00 0.00 47 1015.9
20260504002113 18 188 0.0 0.0 0.00 0.00 0.00 47 1016.0
20260504001613 18 188 0.0 0.0 0.00 0.00 0.00 46 1016.1
20260504001107 18 188 0.0 0.0 0.00 0.00 0.00 45 1016.2
20260504000559 18 188 0.0 0.0 0.00 0.00 0.00 45 1016.3
20260504000039 18 122 0.0 0.0 0.00 0.00 0.00 47 1016.4
20260503235521 18 105 0.0 0.0 0.00 0.00 0.00 45 1016.4
20260503235018 19 105 0.0 0.0 0.00 0.00 0.00 45 1016.4
20260503234523 19 105 0.0 0.0 0.00 0.00 0.00 43 1016.4
20260503234002 19 136 0.0 0.0 0.00 0.00 0.00 43 1016.6
20260503233455 19 30 0.0 0.0 0.00 0.00 0.00 44 1016.5
20260503232958 20 244 0.0 0.0 0.00 0.00 0.00 45 1016.7
20260503232455 20 155 0.0 1.6 0.00 0.00 0.00 42 1016.7
20260503232000 20 116 0.0 0.0 0.00 0.00 0.00 43 1016.7
20260503231500 20 114 0.0 0.0 0.00 0.00 0.00 41 1016.7
20260503230942 20 153 0.0 1.6 0.00 0.00 0.00 40 1016.8
20260503230439 20 108 0.0 0.0 0.00 0.00 0.00 39 1016.8
20260503225926 20 144 0.0 1.6 0.00 0.00 0.00 38 1016.8
20260503225408 20 144 0.0 3.2 0.00 0.00 0.00 40 1017.0
20260503224912 20 55 0.0 8.0 0.00 0.00 0.00 39 1017.0
20260503224413 20 65 0.0 0.0 0.00 0.00 0.00 40 1016.9
20260503223906 21 114 0.0 0.0 0.00 0.00 0.00 40 1016.9
20260503223413 21 222 0.0 1.6 0.00 0.00 0.00 37 1017.0
20260503222911 21 134 0.0 0.0 0.00 0.00 0.00 38 1017.1
20260503222404 21 160 0.0 0.0 0.00 0.00 0.00 37 1017.2
20260503221851 21 131 0.0 4.8 0.00 0.00 0.00 37 1017.3
20260503221359 21 186 0.0 0.0 0.00 0.00 0.00 37 1017.3
20260503220850 21 165 0.0 0.0 0.00 0.00 0.00 38 1017.4
20260503220341 21 255 0.0 3.2 0.00 0.00 0.00 37 1017.6
20260503215834 21 167 0.0 9.7 0.00 0.00 0.00 37 1017.6
20260503215322 21 134 0.0 3.2 0.00 0.00 0.00 35 1017.7
20260503214810 21 177 0.0 1.6 0.00 0.00 0.00 36 1017.7
20260503214317 21 156 0.0 3.2 0.00 0.00 0.00 35 1017.7
20260503213757 21 207 0.0 3.2 0.00 0.00 0.00 37 1017.9
20260503213238 21 250 0.0 3.2 0.00 0.00 0.00 38 1017.9
20260503212744 21 189 0.0 6.4 0.00 0.00 0.00 35 1018.1
20260503212242 21 163 0.0 6.4 0.00 0.00 0.00 37 1018.2
20260503211731 21 210 0.0 6.4 0.00 0.00 0.00 36 1018.3
20260503211211 21 264 0.0 6.4 0.00 0.00 0.00 36 1018.3
20260503210656 21 128 0.0 4.8 0.00 0.00 0.00 37 1018.4
20260503210201 21 326 0.0 4.8 0.00 0.00 0.00 37 1018.5
20260503205658 21 184 0.0 3.2 0.00 0.00 0.00 37 1018.6
20260503205151 21 109 0.0 0.0 0.00 0.00 0.00 37 1018.7
20260503204629 21 143 0.0 6.4 0.00 0.00 0.00 36 1018.8
20260503204134 21 66 0.0 6.4 0.00 0.00 0.00 36 1018.9
20260503203640 21 93 0.0 6.4 0.00 0.00 0.00 36 1019.0
20260503203134 21 123 0.0 4.8 0.00 0.00 0.00 36 1019.1
20260503202620 21 141 0.0 0.0 0.00 0.00 0.00 40 1019.2
20260503202109 21 255 0.0 6.4 0.00 0.00 0.00 37 1019.4
20260503201605 21 133 0.0 4.8 0.00 0.00 0.00 40 1019.4
20260503201045 21 267 0.0 4.8 0.00 0.00 0.00 36 1019.6
20260503200529 21 150 0.0 0.0 0.00 0.00 0.00 37 1019.8
20260503200012 21 201 0.0 6.4 0.00 0.00 0.00 37 1020.0
20260503195503 21 178 0.0 8.0 0.00 0.00 0.00 37 1020.2
20260503194947 21 188 0.0 6.4 0.00 0.00 0.00 37 1020.2
20260503194434 21 278 0.0 6.4 0.00 0.00 0.00 37 1020.2
20260503193917 21 153 0.0 1.6 0.00 0.00 0.00 35 1020.4
20260503193410 21 113 0.0 8.0 0.00 0.00 0.00 38 1020.4
20260503192853 21 296 0.0 8.0 0.00 0.00 0.00 38 1020.6
20260503192355 21 133 0.0 4.8 0.00 0.00 0.00 38 1020.7
20260503191844 20 192 0.0 1.6 0.00 0.00 0.00 38 1020.7
20260503191323 20 213 0.0 1.6 0.00 0.00 0.00 38 1020.8
20260503190830 20 110 0.0 6.4 0.00 0.00 0.00 37 1020.9
20260503190317 20 262 0.0 6.4 0.00 0.00 0.00 41 1021.0
20260503185758 20 256 0.0 6.4 0.00 0.00 0.00 39 1021.0
20260503185239 20 236 0.0 6.4 0.00 0.00 0.00 37 1021.0
20260503184717 20 125 0.0 8.0 0.00 0.00 0.00 39 1021.1
20260503184220 20 174 0.0 8.0 0.00 0.00 0.00 37 1021.1
20260503183726 20 116 0.0 3.2 0.00 0.00 0.00 38 1021.2
20260503183209 20 118 0.0 0.0 0.00 0.00 0.00 39 1021.3
20260503182714 20 143 0.0 4.8 0.00 0.00 0.00 38 1021.3
20260503182211 20 136 0.0 1.6 0.00 0.00 0.00 38 1021.4
20260503181651 20 193 0.0 0.0 0.00 0.00 0.00 42 1021.5
20260503181144 19 258 0.0 0.0 0.00 0.00 0.00 41 1021.6
20260503180624 19 23 0.0 8.0 0.00 0.00 0.00 38 1021.6